When you browse on this site, cookies collect data to enhance your experience and personalize the content and advertising you see.
Visit our Privacy Policy to learn more. By continuing to use the site, you agree to this use of cookies and data.
  • In Portugal
  • List of Countries
  • For 7 days
  • Water Temperature
  • Weather Map
  • Weather Widgets
  • user-avatar
    Login

    Hourly Weather Ganja

    Today, 12 November, Tuesday

    Time Temperature Precipitation Wind Pressure Humidity
    00:00 +10°C° 0 mm 0 mps 730 mmHg 50%
    01:00 +10°C° 0 mm 0 mps 730 mmHg 51%
    02:00 +10°C° 0 mm 0 mps 730 mmHg 52%
    03:00 +9°C° 0 mm 0 mps 730 mmHg 53%
    04:00 +9°C° 0 mm 0 mps 730 mmHg 53%
    05:00 +9°C° 0 mm 0 mps 730 mmHg 53%
    06:00 +8°C° 0 mm 0 mps 730 mmHg 54%
    07:00 +10°C° 0 mm 0 mps 731 mmHg 48%
    08:00 +13°C° 0 mm 1 mps 731 mmHg 43%
    09:00 +15°C° 0 mm 1 mps 732 mmHg 38%
    10:00 +16°C° 0 mm 1 mps 731 mmHg 38%
    11:00 +18°C° 0 mm 1 mps 731 mmHg 37%
    12:00 +18°C° 0 mm 1 mps 731 mmHg 36%
    13:00 +19°C° 0 mm 1 mps 730 mmHg 36%
    14:00 +19°C° 0 mm 1 mps 730 mmHg 36%
    15:00 +19°C° 0 mm 1 mps 730 mmHg 36%
    16:00 +16°C° 0 mm 1 mps 730 mmHg 40%
    17:00 +14°C° 0 mm 1 mps 730 mmHg 44%
    18:00 +12°C° 0 mm 0 mps 730 mmHg 49%
    19:00 +11°C° 0 mm 0 mps 730 mmHg 50%
    20:00 +11°C° 0 mm 0 mps 731 mmHg 51%
    21:00 +11°C° 0 mm 0 mps 731 mmHg 52%
    22:00 +10°C° 0 mm 0 mps 731 mmHg 53%
    23:00 +10°C° 0 mm 0 mps 731 mmHg 54%

    Tomorrow, 13 November, Wednesday

    Time Temperature Precipitation Wind Pressure Humidity
    00:00 +9°C° 0 mm 0 mps 731 mmHg 55%
    01:00 +9°C° 0 mm 0 mps 730 mmHg 55%
    02:00 +10°C° 0 mm 1 mps 730 mmHg 56%
    03:00 +10°C° 0 mm 1 mps 730 mmHg 56%
    04:00 +10°C° 0 mm 1 mps 730 mmHg 56%
    05:00 +9°C° 0 mm 1 mps 730 mmHg 56%
    06:00 +9°C° 0 mm 1 mps 730 mmHg 56%
    07:00 +11°C° 0 mm 1 mps 730 mmHg 51%
    08:00 +12°C° 0 mm 1 mps 731 mmHg 46%
    09:00 +14°C° 0 mm 1 mps 731 mmHg 42%
    10:00 +15°C° 0 mm 1 mps 731 mmHg 40%
    11:00 +16°C° 0 mm 1 mps 730 mmHg 38%
    12:00 +17°C° 0 mm 2 mps 730 mmHg 36%
    13:00 +17°C° 0 mm 2 mps 730 mmHg 35%
    14:00 +17°C° 0 mm 2 mps 730 mmHg 35%
    15:00 +18°C° 0 mm 1 mps 730 mmHg 35%
    16:00 +15°C° 0 mm 1 mps 730 mmHg 39%
    17:00 +14°C° 0 mm 1 mps 730 mmHg 42%
    18:00 +11°C° 0 mm 0 mps 730 mmHg 46%
    19:00 +11°C° 0 mm 0 mps 730 mmHg 47%
    20:00 +10°C° 0 mm 0 mps 730 mmHg 47%
    21:00 +10°C° 0 mm 0 mps 730 mmHg 48%
    22:00 +10°C° 0 mm 0 mps 730 mmHg 48%
    23:00 +10°C° 0 mm 0 mps 730 mmHg 48%

    Day after tomorrow, 14 November, Thursday

    Time Temperature Precipitation Wind Pressure Humidity
    00:00 +9°C° 0 mm 0 mps 730 mmHg 48%
    01:00 +9°C° 0 mm 0 mps 730 mmHg 50%
    02:00 +10°C° 0 mm 1 mps 729 mmHg 52%
    03:00 +9°C° 0 mm 1 mps 729 mmHg 54%
    04:00 +9°C° 0 mm 1 mps 729 mmHg 55%
    05:00 +9°C° 0 mm 1 mps 729 mmHg 56%
    06:00 +8°C° 0 mm 1 mps 729 mmHg 58%
    07:00 +10°C° 0 mm 1 mps 729 mmHg 53%
    08:00 +11°C° 0 mm 1 mps 730 mmHg 49%
    09:00 +13°C° 0 mm 1 mps 730 mmHg 45%
    10:00 +14°C° 0 mm 1 mps 730 mmHg 43%
    11:00 +15°C° 0 mm 2 mps 729 mmHg 42%
    12:00 +15°C° 0 mm 2 mps 729 mmHg 41%
    13:00 +16°C° 0 mm 2 mps 729 mmHg 41%
    14:00 +16°C° 0 mm 2 mps 729 mmHg 42%
    15:00 +16°C° 0 mm 2 mps 729 mmHg 43%
    16:00 +15°C° 0 mm 2 mps 729 mmHg 50%
    17:00 +13°C° 0 mm 2 mps 729 mmHg 57%
    18:00 +12°C° 0 mm 2 mps 730 mmHg 64%
    19:00 +10°C° 0 mm 2 mps 730 mmHg 66%
    20:00 +10°C° 0 mm 2 mps 730 mmHg 68%
    21:00 +10°C° 0 mm 2 mps 731 mmHg 70%
    22:00 +9°C° 0 mm 2 mps 731 mmHg 71%
    23:00 +9°C° 0 mm 2 mps 731 mmHg 73%

    15 November, Friday

    Time Temperature Precipitation Wind Pressure Humidity
    00:00 +8°C° 0 mm 2 mps 731 mmHg 74%
    01:00 +8°C° 0 mm 2 mps 731 mmHg 76%
    02:00 +7°C° 0 mm 2 mps 731 mmHg 78%
    03:00 +7°C° 0 mm 2 mps 731 mmHg 80%
    04:00 +7°C° 0 mm 2 mps 731 mmHg 82%
    05:00 +6°C° 0 mm 2 mps 731 mmHg 83%
    06:00 +7°C° 0 mm 1 mps 731 mmHg 84%
    07:00 +8°C° 0 mm 1 mps 731 mmHg 80%
    08:00 +9°C° 0 mm 1 mps 731 mmHg 76%
    09:00 +10°C° 0 mm 1 mps 731 mmHg 72%
    10:00 +9°C° 0 mm 2 mps 731 mmHg 70%
    11:00 +10°C° 0 mm 2 mps 730 mmHg 69%
    12:00 +10°C° 0 mm 3 mps 730 mmHg 68%
    13:00 +10°C° 0 mm 3 mps 730 mmHg 68%
    14:00 +10°C° 0 mm 3 mps 730 mmHg 68%
    15:00 +10°C° 0 mm 3 mps 730 mmHg 68%
    16:00 +9°C° 0 mm 3 mps 730 mmHg 69%
    17:00 +9°C° 0 mm 3 mps 731 mmHg 70%
    18:00 +8°C° 0 mm 3 mps 731 mmHg 71%
    19:00 +8°C° 0 mm 3 mps 732 mmHg 71%
    20:00 +8°C° 0 mm 3 mps 732 mmHg 71%
    21:00 +7°C° 0 mm 4 mps 733 mmHg 70%
    22:00 +8°C° 0 mm 3 mps 733 mmHg 72%
    23:00 +7°C° 0 mm 3 mps 733 mmHg 74%

    16 November, Saturday

    Time Temperature Precipitation Wind Pressure Humidity
    00:00 +7°C° 0 mm 3 mps 733 mmHg 76%
    01:00 +7°C° 0 mm 3 mps 733 mmHg 78%
    02:00 +7°C° 0 mm 2 mps 733 mmHg 79%
    03:00 +6°C° 0 mm 2 mps 733 mmHg 80%
    04:00 +6°C° 0 mm 2 mps 733 mmHg 81%
    05:00 +6°C° 0 mm 2 mps 733 mmHg 82%
    06:00 +6°C° 0 mm 2 mps 733 mmHg 83%
    07:00 +6°C° 0 mm 2 mps 733 mmHg 79%
    08:00 +7°C° 0 mm 3 mps 733 mmHg 76%
    09:00 +7°C° 0 mm 3 mps 734 mmHg 73%
    10:00 +8°C° 0.1 mm 3 mps 733 mmHg 70%
    11:00 +7°C° 0.1 mm 4 mps 733 mmHg 67%
    12:00 +8°C° 0.1 mm 5 mps 733 mmHg 64%
    13:00 +8°C° 0.1 mm 5 mps 733 mmHg 63%
    14:00 +8°C° 0.1 mm 5 mps 733 mmHg 62%
    15:00 +8°C° 0.1 mm 6 mps 733 mmHg 61%
    16:00 +7°C° 0 mm 5 mps 733 mmHg 64%
    17:00 +6°C° 0 mm 4 mps 734 mmHg 67%
    18:00 +6°C° 0 mm 4 mps 734 mmHg 70%
    19:00 +5°C° 0 mm 4 mps 734 mmHg 70%
    20:00 +5°C° 0 mm 4 mps 734 mmHg 70%
    21:00 +5°C° 0 mm 3 mps 735 mmHg 70%
    22:00 +4°C° 0 mm 3 mps 735 mmHg 71%
    23:00 +5°C° 0 mm 2 mps 735 mmHg 72%

    17 November, Sunday

    Time Temperature Precipitation Wind Pressure Humidity
    00:00 +4°C° 0 mm 2 mps 735 mmHg 73%
    01:00 +5°C° 0 mm 1 mps 734 mmHg 76%
    02:00 +4°C° 0 mm 1 mps 734 mmHg 79%
    03:00 +4°C° 0 mm 1 mps 734 mmHg 82%
    04:00 +4°C° 0 mm 1 mps 734 mmHg 82%
    05:00 +4°C° 0 mm 1 mps 734 mmHg 82%
    06:00 +3°C° 0 mm 0 mps 734 mmHg 82%
    07:00 +5°C° 0 mm 1 mps 734 mmHg 78%
    08:00 +6°C° 0 mm 1 mps 734 mmHg 75%
    09:00 +7°C° 0 mm 1 mps 734 mmHg 72%
    10:00 +7°C° 0 mm 1 mps 734 mmHg 71%
    11:00 +8°C° 0 mm 1 mps 734 mmHg 71%
    12:00 +8°C° 0 mm 1 mps 733 mmHg 70%
    13:00 +8°C° 0 mm 1 mps 733 mmHg 70%
    14:00 +7°C° 0 mm 2 mps 733 mmHg 70%
    15:00 +7°C° 0 mm 2 mps 732 mmHg 70%
    16:00 +7°C° 0 mm 2 mps 732 mmHg 72%
    17:00 +7°C° 0 mm 1 mps 733 mmHg 74%
    18:00 +7°C° 0 mm 1 mps 733 mmHg 76%
    19:00 +7°C° 0 mm 1 mps 733 mmHg 76%
    20:00 +7°C° 0 mm 1 mps 733 mmHg 76%
    21:00 +7°C° 0 mm 1 mps 733 mmHg 76%
    22:00 +7°C° 0 mm 1 mps 733 mmHg 77%
    23:00 +7°C° 0 mm 1 mps 733 mmHg 77%
    Show more